P/2001 R6 ( LINEAR-Skiff ) 2010

Japanese version
Home page
Updated on September 10, 2018

---------------------------------------------------------------------

* Profile

* Orbital Elements

Epoch 2010 Mar. 25.0 TT = JDT 2455280.5
T 2010 Mar. 26.34015 TT                                 MPCW
q   2.1786419            (2000.0)            P               Q
n   0.11569441     Peri.  308.45182     +0.92932023     -0.24564787
a   4.1712010      Node    67.32340     +0.35517269     +0.79895963
e   0.4776943      Incl.   17.38669     -0.10107560     +0.54892680
P   8.52
From 95 observations 2001 Aug. 19-2018 Sept. 8, mean residual 0".6.

* Magnitudes Graph

        m1 = 6.8 + 5 log d + 30.0 log r

---------------------------------------------------------------------

The orbital elements are published on M.P.E.C. 2018-R59.
The magnitudes graphs are made with Comet for Windows.

---------------------------------------------------------------------

Copyright(C) Seiichi Yoshida (comet@aerith.net). All rights reserved.